Pinedale, WY

10:54 AM MDT on June 27, 2017 (GMT -0600)
Wenz

Weather History for KPNA - July, 2013

Change the Weather History Date:

Saturday, July 20, 2013

  Actual Average (KBPI) Record (KBPI)
Temperature  
Mean Temperature 64 °F -  
Max Temperature 86 °F 80 °F 91 °F (2006)
Min Temperature 42 °F 42 °F 23 °F (1987)
Degree Days  
Heating Degree Days 1    
Growing Degree Days 14 (Base 50)    
Moisture  
Dew Point 31 °F    
Average Humidity 35    
Maximum Humidity 76    
Minimum Humidity 11    
Precipitation  
Precipitation 0.00 in - - ()
Sea Level Pressure  
Sea Level Pressure 30.20 in    
Wind  
Wind Speed 7 mph (WNW)    
Max Wind Speed 17 mph    
Max Gust Speed 41 mph    
Visibility 10 miles    
Events      
Averages and records for this station are not official NWS values.
T = Trace of Precipitation, MM = Missing Value Source: NWS Daily Summary

Daily Weather History Graph

Daily Weather History Graph

Search for Another Location

Airport or City:

Trip Planner

Search our weather history database for the weather conditions in past years. The results will help you decide how hot, cold, wet, or windy it might be!

Date:

Astronomy

Jul. 20, 2013 Rise Set
Actual Time 5:59 AM MDT 8:51 PM MDT
Civil Twilight 5:25 AM MDT 9:24 PM MDT
Nautical Twilight 4:43 AM MDT 10:07 PM MDT
Astronomical Twilight 3:53 AM MDT 10:56 PM MDT
Moon 6:58 PM MDT (7/20) 3:42 AM MDT (7/20)
Length of Visible Light 15h 59m
Length of Day
14h 52m
Waxing Gibbous, 94% of the Moon is Illuminated
Jul 20
Waxing Gibbous
Jul 22
Full
Jul 29
Last Quarter
Aug 6
New
Aug 14
First Quarter

Hourly Weather History & Observations

Time (MDT) Temp. Windchill Dew Point Humidity Pressure Visibility Wind Dir Wind Speed Gust Speed Precip Events Conditions
12:15 AM 51.8 °F - 33.8 °F 50% 30.23 in 10.0 mi NNW 5.8 mph - N/A   Clear
12:35 AM 53.6 °F - 35.6 °F 51% 30.23 in 10.0 mi NW 8.1 mph - N/A   Clear
12:55 AM 51.8 °F - 35.6 °F 54% 30.23 in 10.0 mi NW 3.5 mph - N/A   Clear
1:15 AM 51.8 °F - 35.6 °F 54% 30.23 in 10.0 mi WNW 5.8 mph - N/A   Clear
1:35 AM 51.8 °F - 35.6 °F 54% 30.23 in 10.0 mi NW 3.5 mph - N/A   Clear
1:55 AM 50.0 °F - 35.6 °F 58% 30.23 in 10.0 mi NW 4.6 mph - N/A   Clear
2:15 AM 51.8 °F - 35.6 °F 54% 30.23 in 10.0 mi NW 5.8 mph - N/A   Clear
2:35 AM 50.0 °F - 35.6 °F 58% 30.23 in 10.0 mi WNW 3.5 mph - N/A   Clear
2:55 AM 46.4 °F 44.3 °F 37.4 °F 71% 30.23 in 10.0 mi NW 4.6 mph - N/A   Clear
3:15 AM 50.0 °F - 35.6 °F 58% 30.24 in 10.0 mi WNW 6.9 mph - N/A   Clear
3:35 AM 44.6 °F 41.4 °F 35.6 °F 71% 30.24 in 10.0 mi West 5.8 mph - N/A   Clear
3:55 AM 46.4 °F 43.5 °F 35.6 °F 66% 30.24 in 10.0 mi West 5.8 mph - N/A   Clear
4:15 AM 46.4 °F 44.3 °F 35.6 °F 66% 30.24 in 10.0 mi WNW 4.6 mph - N/A   Clear
4:35 AM 46.4 °F 44.3 °F 35.6 °F 66% 30.23 in 10.0 mi NW 4.6 mph - N/A   Clear
4:55 AM 46.4 °F 43.5 °F 33.8 °F 62% 30.23 in 10.0 mi WNW 5.8 mph - N/A   Clear
5:15 AM 44.6 °F 43.1 °F 35.6 °F 71% 30.23 in 10.0 mi NW 3.5 mph - N/A   Clear
5:35 AM 42.8 °F 40.1 °F 35.6 °F 76% 30.23 in 10.0 mi West 4.6 mph - N/A   Clear
5:55 AM 42.8 °F 38.6 °F 33.8 °F 70% 30.23 in 10.0 mi WNW 6.9 mph - N/A   Clear
6:15 AM 42.8 °F 39.3 °F 33.8 °F 70% 30.23 in 10.0 mi WNW 5.8 mph - N/A   Clear
6:35 AM 42.8 °F 39.3 °F 35.6 °F 76% 30.24 in 10.0 mi West 5.8 mph - N/A   Clear
6:55 AM 46.4 °F 44.3 °F 35.6 °F 66% 30.24 in 10.0 mi NW 4.6 mph - N/A   Clear
7:15 AM 50.0 °F - 35.6 °F 58% 30.24 in 10.0 mi Calm Calm - N/A   Clear
7:35 AM 50.0 °F - 35.6 °F 58% 30.25 in 10.0 mi West 4.6 mph - N/A   Clear
7:55 AM 53.6 °F - 33.8 °F 47% 30.25 in 10.0 mi WNW 3.5 mph - N/A   Clear
8:15 AM 55.4 °F - 35.6 °F 47% 30.25 in 10.0 mi Calm Calm - N/A   Clear
8:35 AM 60.8 °F - 33.8 °F 36% 30.26 in 10.0 mi Calm Calm - N/A   Clear
8:55 AM 62.6 °F - 35.6 °F 37% 30.25 in 10.0 mi ESE 3.5 mph - N/A   Clear
9:15 AM 68.0 °F - 35.6 °F 30% 30.24 in 10.0 mi East 9.2 mph - N/A   Clear
9:35 AM 69.8 °F - 37.4 °F 31% 30.24 in 10.0 mi ESE 5.8 mph - N/A   Clear
9:55 AM 71.6 °F - 35.6 °F 27% 30.24 in 10.0 mi ESE 4.6 mph - N/A   Clear
10:15 AM 73.4 °F - 33.8 °F 23% 30.24 in 10.0 mi South 9.2 mph - N/A   Clear
10:35 AM 75.2 °F - 33.8 °F 22% 30.23 in 10.0 mi South 10.4 mph - N/A   Clear
10:55 AM 75.2 °F - 33.8 °F 22% 30.23 in 10.0 mi Calm Calm - N/A   Clear
11:15 AM 77.0 °F - 32.0 °F 19% 30.22 in 10.0 mi South 4.6 mph - N/A   Clear
11:35 AM 78.8 °F - 30.2 °F 17% 30.22 in 10.0 mi SW 3.5 mph - N/A   Clear
11:55 AM 78.8 °F - 28.4 °F 16% 30.21 in 10.0 mi ESE 5.8 mph - N/A   Clear
12:15 PM 80.6 °F - 28.4 °F 15% 30.20 in 10.0 mi Calm Calm - N/A   Clear
12:35 PM 78.8 °F - 28.4 °F 16% 30.19 in 10.0 mi SW 3.5 mph - N/A   Clear
12:55 PM 82.4 °F - 26.6 °F 13% 30.19 in 10.0 mi NW 15.0 mph 25.3 mph N/A   Clear
1:15 PM 82.4 °F - 28.4 °F 14% 30.19 in 10.0 mi NNW 11.5 mph 20.7 mph N/A   Clear
1:35 PM 82.4 °F - 26.6 °F 13% 30.18 in 10.0 mi NNW 13.8 mph 19.6 mph N/A   Clear
1:55 PM 82.4 °F - 26.6 °F 13% 30.18 in 10.0 mi North 11.5 mph 18.4 mph N/A   Clear
2:15 PM 84.2 °F - 23.0 °F 11% 30.18 in 10.0 mi WNW 17.3 mph - N/A   Clear
2:35 PM 82.4 °F - 26.6 °F 13% 30.17 in 10.0 mi NNW 9.2 mph 20.7 mph N/A   Clear
2:55 PM 86.0 °F - 24.8 °F 11% 30.16 in 10.0 mi NNW 17.3 mph - N/A   Clear
3:15 PM 84.2 °F - 28.4 °F 13% 30.16 in 10.0 mi NW 16.1 mph 21.9 mph N/A   Clear
3:35 PM 84.2 °F - 28.4 °F 13% 30.16 in 10.0 mi NW 15.0 mph 20.7 mph N/A   Clear
3:55 PM 84.2 °F - 26.6 °F 12% 30.16 in 10.0 mi NW 15.0 mph 23.0 mph N/A   Clear
4:15 PM 84.2 °F - 26.6 °F 12% 30.15 in 10.0 mi NW 17.3 mph 41.4 mph N/A   Clear
4:35 PM 84.2 °F - 26.6 °F 12% 30.15 in 10.0 mi West 15.0 mph 26.5 mph N/A   Clear
4:55 PM 82.4 °F - 24.8 °F 12% 30.14 in 10.0 mi West 17.3 mph 24.2 mph N/A   Clear
5:15 PM 84.2 °F - 26.6 °F 12% 30.14 in 10.0 mi NW 13.8 mph 25.3 mph N/A   Clear
5:35 PM 82.4 °F - 23.0 °F 11% 30.14 in 10.0 mi West 13.8 mph 25.3 mph N/A   Clear
5:55 PM 82.4 °F - 23.0 °F 11% 30.13 in 10.0 mi NW 16.1 mph 23.0 mph N/A   Clear
6:15 PM 82.4 °F - 23.0 °F 11% 30.13 in 10.0 mi NW 12.7 mph 18.4 mph N/A   Clear
6:35 PM 82.4 °F - 24.8 °F 12% 30.13 in 10.0 mi NW 17.3 mph 24.2 mph N/A   Clear
6:55 PM 80.6 °F - 24.8 °F 13% 30.13 in 10.0 mi NW 16.1 mph - N/A   Clear
7:15 PM 80.6 °F - 26.6 °F 14% 30.13 in 10.0 mi NNW 11.5 mph 23.0 mph N/A   Clear
7:35 PM 78.8 °F - 26.6 °F 15% 30.13 in 10.0 mi NW 13.8 mph - N/A   Clear
7:55 PM 77.0 °F - 26.6 °F 16% 30.14 in 10.0 mi NW 11.5 mph - N/A   Clear
8:15 PM 75.2 °F - 28.4 °F 18% 30.14 in 10.0 mi NW 10.4 mph - N/A   Clear
8:35 PM 71.6 °F - 30.2 °F 22% 30.14 in 10.0 mi NW 6.9 mph - N/A   Clear
8:55 PM 69.8 °F - 28.4 °F 21% 30.14 in 10.0 mi NW 8.1 mph - N/A   Clear
9:15 PM 64.4 °F - 32.0 °F 30% 30.15 in 10.0 mi NW 8.1 mph - N/A   Clear
9:35 PM 62.6 °F - 32.0 °F 32% 30.15 in 10.0 mi Calm Calm - N/A   Clear
9:55 PM 59.0 °F - 32.0 °F 36% 30.16 in 10.0 mi West 4.6 mph - N/A   Clear
10:15 PM 59.0 °F - 32.0 °F 36% 30.16 in 10.0 mi West 9.2 mph - N/A   Clear
10:35 PM 59.0 °F - 30.2 °F 34% 30.16 in 10.0 mi NW 4.6 mph - N/A   Clear
10:55 PM 57.2 °F - 32.0 °F 38% 30.16 in 10.0 mi NW 5.8 mph - N/A   Clear
11:15 PM 59.0 °F - 32.0 °F 36% 30.16 in 10.0 mi NNW 3.5 mph - N/A   Clear
11:35 PM 55.4 °F - 32.0 °F 41% 30.15 in 10.0 mi WNW 4.6 mph - N/A   Clear
11:55 PM 53.6 °F - 33.8 °F 47% 30.16 in 10.0 mi West 4.6 mph - N/A   Clear